KLM9E EIDW-EDDH

Flight info

Callsign KLM9E
Flight time 1h 37m
Altitude 35000
Route LIFFY IDEXA GINIS LYNAS ROLEX MALUD WAL MCT XAPOS NAPEX DOLAS DIBAL BUKUT LAMSO MONIL SPY BETUS ANDIK PABCO COFCA SUQIF REVLA OPWOT MUBZI RIBSO
Aircraft A339/H-VGDW/C

Departure

Time 2026-04-22 19:57
Airport Dublin Airport (EIDW)

Arrival

Time 2026-04-22 21:34
Airport Hamburg Helmut Schmidt Airport (EDDH)
Time Latitude Longitude Altitude Speed Heading
2026-04-22 19:14 53.42546 -6.24624 224 ft 0 kts 19°
2026-04-22 19:37 53.42541 -6.24627 224 ft 2 kts 20°
2026-04-22 19:37 53.42531 -6.24633 225 ft 2 kts 20°
2026-04-22 19:37 53.42510 -6.24646 223 ft 2 kts 20°
2026-04-22 19:37 53.42495 -6.24656 204 ft 2 kts 20°
2026-04-22 19:38 53.42479 -6.24665 215 ft 2 kts
2026-04-22 19:38 53.42462 -6.24664 197 ft 2 kts 330°
2026-04-22 19:38 53.42450 -6.24646 222 ft 2 kts 298°
2026-04-22 19:38 53.42443 -6.24620 224 ft 2 kts 283°
2026-04-22 19:39 53.42441 -6.24602 222 ft 2 kts 271°
2026-04-22 19:39 53.42442 -6.24575 224 ft 2 kts 251°
2026-04-22 19:39 53.42444 -6.24566 223 ft 0 kts 245°
2026-04-22 19:45 53.42442 -6.24574 223 ft 3 kts 245°
2026-04-22 19:45 53.42421 -6.24645 221 ft 10 kts 242°
2026-04-22 19:46 53.42384 -6.24732 224 ft 9 kts 229°
2026-04-22 19:46 53.42368 -6.24835 225 ft 10 kts 292°
2026-04-22 19:46 53.42422 -6.24902 227 ft 8 kts 333°
2026-04-22 19:46 53.42433 -6.24911 225 ft 0 kts 334°
2026-04-22 19:47 53.42434 -6.24911 225 ft 1 kts 335°
2026-04-22 19:47 53.42447 -6.24922 227 ft 4 kts 335°
2026-04-22 19:48 53.42484 -6.24949 225 ft 8 kts 336°
2026-04-22 19:48 53.42550 -6.24997 227 ft 12 kts 336°
2026-04-22 19:48 53.42631 -6.25055 225 ft 9 kts 337°
2026-04-22 19:48 53.42693 -6.25105 226 ft 10 kts 324°
2026-04-22 19:49 53.42736 -6.25191 229 ft 9 kts 321°
2026-04-22 19:49 53.42795 -6.25241 224 ft 10 kts 336°
2026-04-22 19:49 53.42865 -6.25293 224 ft 13 kts 337°
2026-04-22 19:49 53.42944 -6.25362 225 ft 12 kts 330°
2026-04-22 19:50 53.43023 -6.25423 227 ft 14 kts 336°
2026-04-22 19:50 53.43126 -6.25497 226 ft 18 kts 337°
2026-04-22 19:50 53.43187 -6.25541 225 ft 4 kts 337°
2026-04-22 19:50 53.43222 -6.25566 225 ft 7 kts 337°
2026-04-22 19:51 53.43282 -6.25598 223 ft 12 kts 342°
2026-04-22 19:51 53.43364 -6.25654 228 ft 11 kts 334°
2026-04-22 19:51 53.43389 -6.25741 224 ft 7 kts 265°
2026-04-22 19:51 53.43373 -6.25824 224 ft 8 kts 248°
2026-04-22 19:52 53.43345 -6.25934 227 ft 14 kts 246°
2026-04-22 19:52 53.43305 -6.26091 226 ft 13 kts 249°
2026-04-22 19:52 53.43329 -6.26208 228 ft 10 kts 313°
2026-04-22 19:52 53.43382 -6.26288 234 ft 11 kts 320°
2026-04-22 19:53 53.43443 -6.26384 236 ft 14 kts 304°
2026-04-22 19:53 53.43464 -6.26557 236 ft 16 kts 275°
2026-04-22 19:53 53.43476 -6.26772 232 ft 22 kts 275°
2026-04-22 19:53 53.43490 -6.27034 226 ft 19 kts 275°
2026-04-22 19:54 53.43503 -6.27269 223 ft 21 kts 275°
2026-04-22 19:54 53.43516 -6.27512 224 ft 19 kts 275°
2026-04-22 19:54 53.43529 -6.27734 227 ft 20 kts 275°
2026-04-22 19:54 53.43541 -6.27964 222 ft 20 kts 275°
2026-04-22 19:55 53.43552 -6.28186 223 ft 19 kts 275°
2026-04-22 19:55 53.43563 -6.28365 227 ft 15 kts 276°
2026-04-22 19:55 53.43612 -6.28474 224 ft 13 kts 348°
2026-04-22 19:55 53.43710 -6.28451 221 ft 14 kts 28°
2026-04-22 19:56 53.43733 -6.28312 212 ft 11 kts 94°
2026-04-22 19:56 53.43719 -6.28073 223 ft 34 kts 95°
2026-04-22 19:56 53.43681 -6.27395 222 ft 88 kts 95°
2026-04-22 19:56 53.43607 -6.26051 227 ft 141 kts 95°
2026-04-22 19:57 53.43492 -6.24165 316 ft 179 kts 97°
2026-04-22 19:57 53.43351 -6.22018 975 ft 184 kts 96°
2026-04-22 19:57 53.43214 -6.20009 2078 ft 168 kts 100°
2026-04-22 19:57 53.43099 -6.18010 2701 ft 182 kts 96°
2026-04-22 19:58 53.43129 -6.15748 3126 ft 202 kts 89°
2026-04-22 19:58 53.43314 -6.13335 3808 ft 215 kts 85°
2026-04-22 19:58 53.43585 -6.10802 4487 ft 225 kts 84°
2026-04-22 19:58 53.43912 -6.08189 5223 ft 231 kts 83°
2026-04-22 19:59 53.44206 -6.05517 5890 ft 236 kts 85°
2026-04-22 20:00 53.45454 -5.88410 9776 ft 254 kts 89°
2026-04-22 20:00 53.45645 -5.85412 10254 ft 264 kts 88°
2026-04-22 20:01 53.45843 -5.82266 10579 ft 277 kts 88°
2026-04-22 20:01 53.46053 -5.79009 11084 ft 282 kts 88°
2026-04-22 20:01 53.46270 -5.75724 11650 ft 285 kts 88°
2026-04-22 20:01 53.46492 -5.72403 12227 ft 288 kts 88°
2026-04-22 20:02 53.46715 -5.69092 12780 ft 291 kts 88°
2026-04-22 20:02 53.46945 -5.65701 13327 ft 294 kts 88°
2026-04-22 20:02 53.47177 -5.62268 13891 ft 297 kts 88°
2026-04-22 20:02 53.47411 -5.58799 14399 ft 301 kts 88°
2026-04-22 20:03 53.47623 -5.55294 14846 ft 304 kts 90°
2026-04-22 20:03 53.47735 -5.51711 15304 ft 307 kts 92°
2026-04-22 20:03 53.47769 -5.48097 15766 ft 311 kts 94°
2026-04-22 20:03 53.47753 -5.44448 16224 ft 314 kts 95°
2026-04-22 20:04 53.47703 -5.40756 16700 ft 317 kts 96°
2026-04-22 20:04 53.47628 -5.37065 17152 ft 321 kts 96°
2026-04-22 20:04 53.47537 -5.33311 17618 ft 324 kts 96°
2026-04-22 20:04 53.47433 -5.29517 18090 ft 327 kts 97°
2026-04-22 20:05 53.47323 -5.25665 18549 ft 330 kts 97°
2026-04-22 20:05 53.47208 -5.21803 18971 ft 332 kts 97°
2026-04-22 20:05 53.47091 -5.17965 19397 ft 334 kts 97°
2026-04-22 20:05 53.46969 -5.14045 19810 ft 336 kts 97°
2026-04-22 20:06 53.46846 -5.10111 20235 ft 338 kts 97°
2026-04-22 20:06 53.46720 -5.06143 20661 ft 340 kts 97°
2026-04-22 20:06 53.46595 -5.02202 21065 ft 342 kts 96°
2026-04-22 20:06 53.46467 -4.98186 21470 ft 344 kts 96°
2026-04-22 20:07 53.46339 -4.94155 21879 ft 347 kts 96°
2026-04-22 20:07 53.46208 -4.90094 22263 ft 350 kts 96°
2026-04-22 20:07 53.46076 -4.86054 22641 ft 352 kts 96°
2026-04-22 20:07 53.45936 -4.81863 23023 ft 355 kts 96°
2026-04-22 20:08 53.45796 -4.77702 23390 ft 358 kts 96°
2026-04-22 20:08 53.45653 -4.73513 23754 ft 362 kts 96°
2026-04-22 20:08 53.45510 -4.69334 24084 ft 365 kts 96°
2026-04-22 20:08 53.45364 -4.65039 24412 ft 367 kts 96°
2026-04-22 20:09 53.45217 -4.60750 24726 ft 369 kts 96°
2026-04-22 20:09 53.45067 -4.56397 25056 ft 371 kts 96°
2026-04-22 20:09 53.44918 -4.52146 25391 ft 372 kts 96°
2026-04-22 20:09 53.44764 -4.47778 25722 ft 374 kts 96°
2026-04-22 20:10 53.44609 -4.43407 26047 ft 376 kts 96°
2026-04-22 20:10 53.44451 -4.39012 26372 ft 378 kts 96°
2026-04-22 20:10 53.44289 -4.34594 26697 ft 381 kts 96°
2026-04-22 20:10 53.44122 -4.30136 27016 ft 383 kts 96°
2026-04-22 20:11 53.43953 -4.25711 27327 ft 385 kts 96°
2026-04-22 20:11 53.43782 -4.21207 27654 ft 388 kts 96°
2026-04-22 20:11 53.43607 -4.16677 27980 ft 390 kts 96°
2026-04-22 20:11 53.43430 -4.12113 28294 ft 393 kts 96°
2026-04-22 20:12 53.43253 -4.07556 28602 ft 395 kts 96°
2026-04-22 20:12 53.43070 -4.02938 28883 ft 398 kts 96°
2026-04-22 20:12 53.42948 -3.99868 29094 ft 400 kts 96°
2026-04-22 20:12 53.42695 -3.93613 29527 ft 403 kts 96°
2026-04-22 20:13 53.42505 -3.88946 29852 ft 405 kts 96°
2026-04-22 20:13 53.42310 -3.84186 30169 ft 407 kts 95°
2026-04-22 20:13 53.42112 -3.79429 30483 ft 410 kts 95°
2026-04-22 20:13 53.41914 -3.74658 30764 ft 412 kts 95°
2026-04-22 20:14 53.41713 -3.69850 31047 ft 413 kts 95°
2026-04-22 20:14 53.41511 -3.65079 31308 ft 416 kts 95°
2026-04-22 20:14 53.41300 -3.60223 31576 ft 418 kts 95°
2026-04-22 20:14 53.41087 -3.55371 31859 ft 420 kts 95°
2026-04-22 20:15 53.40871 -3.50461 32132 ft 422 kts 95°
2026-04-22 20:15 53.40653 -3.45544 32412 ft 424 kts 95°
2026-04-22 20:15 53.40429 -3.40555 32693 ft 426 kts 95°
2026-04-22 20:15 53.40207 -3.35634 32963 ft 428 kts 95°
2026-04-22 20:16 53.39980 -3.30653 33248 ft 430 kts 95°
2026-04-22 20:16 53.39752 -3.25656 33523 ft 432 kts 95°
2026-04-22 20:16 53.39594 -3.22234 33700 ft 433 kts 95°
2026-04-22 20:16 53.39300 -3.15564 34044 ft 436 kts 94°
2026-04-22 20:17 53.39092 -3.10465 34295 ft 439 kts 94°
2026-04-22 20:17 53.38890 -3.05328 34406 ft 444 kts 94°
2026-04-22 20:17 53.38687 -3.00079 34410 ft 453 kts 93°
2026-04-22 20:18 53.38349 -2.91237 34428 ft 466 kts 93°
2026-04-22 20:18 53.37923 -2.80220 34432 ft 482 kts 93°
2026-04-22 20:18 53.37630 -2.72727 34656 ft 486 kts 93°
2026-04-22 20:19 53.37481 -2.68992 34837 ft 486 kts 93°
2026-04-22 20:19 53.37179 -2.61447 35146 ft 486 kts 93°
2026-04-22 20:19 53.37027 -2.57720 35259 ft 479 kts 93°
2026-04-22 20:19 53.36799 -2.52153 35361 ft 479 kts 93°
2026-04-22 20:20 53.36565 -2.46531 35397 ft 485 kts 93°
2026-04-22 20:20 53.36084 -2.35161 35421 ft 490 kts 93°
2026-04-22 20:21 53.35348 -2.23836 35426 ft 487 kts 97°
2026-04-22 20:21 53.34313 -2.12689 35425 ft 487 kts 98°
2026-04-22 20:22 53.33182 -2.01489 35429 ft 488 kts 98°
2026-04-22 20:22 53.32018 -1.90309 35432 ft 486 kts 98°
2026-04-22 20:23 53.30850 -1.79239 35441 ft 486 kts 98°
2026-04-22 20:23 53.29668 -1.68095 35448 ft 487 kts 98°
2026-04-22 20:24 53.28475 -1.56956 35450 ft 486 kts 98°
2026-04-22 20:24 53.27273 -1.45844 35450 ft 485 kts 98°
2026-04-22 20:25 53.26060 -1.34719 35452 ft 485 kts 98°
2026-04-22 20:25 53.24835 -1.23584 35451 ft 485 kts 98°
2026-04-22 20:26 53.23605 -1.12496 35447 ft 485 kts 98°
2026-04-22 20:26 53.22369 -1.01445 35447 ft 485 kts 98°
2026-04-22 20:27 53.21121 -0.90372 35450 ft 485 kts 98°
2026-04-22 20:27 53.19859 -0.79305 35452 ft 484 kts 99°
2026-04-22 20:28 53.18595 -0.68334 35455 ft 484 kts 99°
2026-04-22 20:28 53.17313 -0.57283 35455 ft 485 kts 99°
2026-04-22 20:29 53.16019 -0.46227 35454 ft 485 kts 99°
2026-04-22 20:29 53.14726 -0.35269 35457 ft 484 kts 99°
2026-04-22 20:30 53.13411 -0.24222 35457 ft 484 kts 99°
2026-04-22 20:30 53.12096 -0.13269 35455 ft 485 kts 99°
2026-04-22 20:31 53.10763 -0.02246 35454 ft 484 kts 99°
2026-04-22 20:31 53.09422 0.08752 35448 ft 484 kts 99°
2026-04-22 20:32 53.08072 0.19731 35448 ft 485 kts 99°
2026-04-22 20:32 53.06712 0.30714 35446 ft 485 kts 99°
2026-04-22 20:33 53.05352 0.41593 35443 ft 484 kts 99°
2026-04-22 20:33 53.03971 0.52570 35445 ft 484 kts 99°
2026-04-22 20:34 53.02577 0.63552 35449 ft 485 kts 99°
2026-04-22 20:34 53.01184 0.74437 35451 ft 484 kts 99°
2026-04-22 20:35 52.99774 0.85367 35453 ft 483 kts 99°
2026-04-22 20:35 52.98368 0.96286 35452 ft 487 kts 98°
2026-04-22 20:36 52.97041 1.07354 35457 ft 490 kts 98°
2026-04-22 20:36 52.95749 1.18414 35455 ft 486 kts 98°
2026-04-22 20:37 52.94466 1.29426 35456 ft 486 kts 98°
2026-04-22 20:37 52.93178 1.40438 35456 ft 486 kts 98°
2026-04-22 20:38 52.91890 1.51341 35454 ft 484 kts 98°
2026-04-22 20:38 52.90586 1.62285 35452 ft 483 kts 98°
2026-04-22 20:39 52.89274 1.73206 35451 ft 483 kts 98°
2026-04-22 20:39 52.87953 1.84118 35449 ft 482 kts 98°
2026-04-22 20:40 52.86632 1.94933 35452 ft 481 kts 98°
2026-04-22 20:40 52.85294 2.05789 35451 ft 481 kts 99°
2026-04-22 20:41 52.83947 2.16637 35447 ft 480 kts 99°
2026-04-22 20:41 52.82593 2.27445 35447 ft 479 kts 99°
2026-04-22 20:42 52.81227 2.38248 35448 ft 480 kts 99°
2026-04-22 20:42 52.79859 2.48967 35443 ft 480 kts 99°
2026-04-22 20:43 52.78475 2.59748 35437 ft 478 kts 99°
2026-04-22 20:43 52.77084 2.70495 35449 ft 478 kts 99°
2026-04-22 20:44 52.75686 2.81247 35443 ft 478 kts 99°
2026-04-22 20:44 52.74281 2.91973 35441 ft 478 kts 99°
2026-04-22 20:45 52.73338 3.02746 35440 ft 471 kts 87°
2026-04-22 20:45 52.73646 3.13465 35433 ft 470 kts 83°
2026-04-22 20:46 52.74364 3.29585 35434 ft 467 kts 83°
2026-04-22 20:46 52.74830 3.40241 35431 ft 467 kts 83°
2026-04-22 20:47 52.75567 3.50854 35438 ft 463 kts 72°
2026-04-22 20:47 52.77666 3.60904 35435 ft 462 kts 68°
2026-04-22 20:48 52.79923 3.70857 35436 ft 461 kts 68°
2026-04-22 20:48 52.82147 3.80725 35440 ft 460 kts 68°
2026-04-22 20:49 52.84337 3.90668 35444 ft 460 kts 69°
2026-04-22 20:49 52.86486 4.00653 35442 ft 459 kts 69°
2026-04-22 20:50 52.88583 4.10582 35442 ft 459 kts 70°
2026-04-22 20:50 52.90664 4.20587 35440 ft 460 kts 70°
2026-04-22 20:51 52.92721 4.30615 35436 ft 458 kts 70°
2026-04-22 20:51 52.94749 4.40607 35431 ft 457 kts 71°
2026-04-22 20:52 52.96418 4.48897 35431 ft 458 kts 71°
2026-04-22 20:52 52.98756 4.60605 35428 ft 456 kts 71°
2026-04-22 20:53 53.00737 4.70603 35428 ft 455 kts 71°
2026-04-22 20:53 53.02705 4.80596 35430 ft 455 kts 72°
2026-04-22 20:54 53.04339 4.88942 35431 ft 454 kts 72°
2026-04-22 20:54 53.06600 5.00566 35432 ft 453 kts 72°
2026-04-22 20:55 53.08524 5.10515 35433 ft 452 kts 72°
2026-04-22 20:55 53.10119 5.18804 35431 ft 452 kts 72°
2026-04-22 20:56 53.12340 5.30406 35430 ft 451 kts 73°
2026-04-22 20:56 53.14234 5.40350 35425 ft 450 kts 73°
2026-04-22 20:57 53.16115 5.50288 35427 ft 449 kts 73°
2026-04-22 20:57 53.17674 5.58560 35427 ft 448 kts 73°
2026-04-22 20:58 53.18608 5.63533 35429 ft 448 kts 73°
2026-04-22 20:58 53.21688 5.80035 35426 ft 446 kts 74°
2026-04-22 20:59 53.23509 5.89864 35427 ft 445 kts 74°
2026-04-22 20:59 53.24423 5.94814 35427 ft 444 kts 74°
2026-04-22 21:00 53.26835 6.07948 35427 ft 443 kts 75°
2026-04-22 21:00 53.28328 6.16125 35428 ft 442 kts 75°
2026-04-22 21:01 53.30396 6.27509 35414 ft 440 kts 75°
2026-04-22 21:01 53.32180 6.37389 35414 ft 439 kts 75°
2026-04-22 21:02 53.33935 6.47161 35415 ft 438 kts 76°
2026-04-22 21:02 53.35685 6.56948 35412 ft 435 kts 76°
2026-04-22 21:03 53.37409 6.66653 35410 ft 432 kts 76°
2026-04-22 21:03 53.38255 6.71423 35405 ft 417 kts 76°
2026-04-22 21:03 53.39072 6.76033 35349 ft 407 kts 77°
2026-04-22 21:04 53.39882 6.80611 34794 ft 409 kts 77°
2026-04-22 21:04 53.40688 6.85169 34491 ft 402 kts 77°
2026-04-22 21:04 53.41476 6.89636 33951 ft 397 kts 78°
2026-04-22 21:04 53.42248 6.94060 33348 ft 393 kts 78°
2026-04-22 21:05 53.43011 6.98460 32743 ft 390 kts 78°
2026-04-22 21:05 53.43760 7.02799 32165 ft 387 kts 78°
2026-04-22 21:05 53.44508 7.07133 31586 ft 385 kts 78°
2026-04-22 21:05 53.45247 7.11432 31018 ft 382 kts 78°
2026-04-22 21:06 53.45977 7.15682 30460 ft 380 kts 78°
2026-04-22 21:06 53.46708 7.19957 29812 ft 377 kts 78°
2026-04-22 21:06 53.47434 7.24230 29177 ft 374 kts 78°
2026-04-22 21:06 53.48141 7.28409 28561 ft 371 kts 78°
2026-04-22 21:07 53.48839 7.32541 27939 ft 369 kts 77°
2026-04-22 21:07 53.49530 7.36649 27344 ft 367 kts 77°
2026-04-22 21:07 53.50227 7.40789 26740 ft 365 kts 77°
2026-04-22 21:07 53.50915 7.44886 26151 ft 364 kts 76°
2026-04-22 21:08 53.51602 7.48992 25582 ft 362 kts 76°
2026-04-22 21:08 53.52279 7.53040 25002 ft 361 kts 76°
2026-04-22 21:08 53.52954 7.57086 24428 ft 361 kts 75°
2026-04-22 21:08 53.53629 7.61140 23861 ft 360 kts 75°
2026-04-22 21:09 53.54079 7.63838 23453 ft 359 kts 75°
2026-04-22 21:09 53.54982 7.69234 22704 ft 355 kts 74°
2026-04-22 21:09 53.55649 7.73218 22152 ft 353 kts 74°
2026-04-22 21:09 53.56312 7.77189 21614 ft 351 kts 74°
2026-04-22 21:10 53.56960 7.81084 21101 ft 348 kts 74°
2026-04-22 21:10 53.57530 7.84969 20588 ft 346 kts 77°
2026-04-22 21:10 53.58040 7.88972 20058 ft 344 kts 77°
2026-04-22 21:10 53.58515 7.92937 19553 ft 342 kts 78°
2026-04-22 21:11 53.58977 7.96880 19047 ft 340 kts 78°
2026-04-22 21:11 53.59278 7.99463 18711 ft 339 kts 78°
2026-04-22 21:11 53.59881 8.04645 17977 ft 335 kts 78°
2026-04-22 21:11 53.60330 8.08474 17447 ft 333 kts 77°
2026-04-22 21:12 53.60780 8.12304 16903 ft 330 kts 77°
2026-04-22 21:12 53.61223 8.16053 16371 ft 328 kts 77°
2026-04-22 21:12 53.61667 8.19804 15844 ft 325 kts 77°
2026-04-22 21:12 53.62109 8.23530 15321 ft 323 kts 77°
2026-04-22 21:13 53.62399 8.25977 14990 ft 321 kts 77°
2026-04-22 21:13 53.62983 8.30899 14307 ft 318 kts 77°
2026-04-22 21:13 53.63268 8.33309 13938 ft 317 kts 77°
2026-04-22 21:13 53.63414 8.34543 13745 ft 316 kts 77°
2026-04-22 21:14 53.63554 8.35719 13559 ft 315 kts 77°
2026-04-22 21:14 53.64692 8.45327 12055 ft 310 kts 77°
2026-04-22 21:14 53.65107 8.48843 11687 ft 308 kts 77°
2026-04-22 21:14 53.65520 8.52355 11508 ft 304 kts 77°
2026-04-22 21:15 53.65930 8.55853 11435 ft 305 kts 77°
2026-04-22 21:15 53.66343 8.59361 11398 ft 308 kts 77°
2026-04-22 21:15 53.66763 8.62934 11386 ft 308 kts 77°
2026-04-22 21:15 53.67178 8.66476 11382 ft 308 kts 77°
2026-04-22 21:16 53.67318 8.67672 11380 ft 308 kts 77°
2026-04-22 21:16 53.67591 8.70019 11379 ft 308 kts 77°
2026-04-22 21:16 53.68417 8.77132 11379 ft 309 kts 77°
2026-04-22 21:16 53.68825 8.80660 11378 ft 309 kts 77°
2026-04-22 21:17 53.69235 8.84220 11343 ft 309 kts 77°
2026-04-22 21:17 53.69638 8.87742 11332 ft 302 kts 77°
2026-04-22 21:17 53.70025 8.91138 11267 ft 286 kts 77°
2026-04-22 21:17 53.70269 8.93296 11082 ft 279 kts 77°
2026-04-22 21:18 53.70755 8.97585 10461 ft 277 kts 77°
2026-04-22 21:18 53.71116 9.00776 9969 ft 275 kts 77°
2026-04-22 21:18 53.71473 9.03928 9460 ft 274 kts 77°
2026-04-22 21:18 53.71828 9.07080 8957 ft 272 kts 77°
2026-04-22 21:19 53.72183 9.10230 8284 ft 277 kts 76°
2026-04-22 21:19 53.72562 9.13568 7856 ft 298 kts 76°
2026-04-22 21:19 53.72946 9.16952 7570 ft 293 kts 77°
2026-04-22 21:19 53.73319 9.20296 7458 ft 286 kts 76°
2026-04-22 21:20 53.73689 9.23610 7401 ft 288 kts 76°
2026-04-22 21:20 53.74057 9.26904 7381 ft 291 kts 76°
2026-04-22 21:20 53.74191 9.28110 7376 ft 291 kts 76°
2026-04-22 21:20 53.74808 9.33676 7360 ft 290 kts 77°
2026-04-22 21:21 53.75178 9.37029 7360 ft 291 kts 77°
2026-04-22 21:21 53.75548 9.40387 7350 ft 291 kts 76°
2026-04-22 21:21 53.75916 9.43744 7205 ft 289 kts 77°
2026-04-22 21:21 53.76281 9.47083 6818 ft 288 kts 76°
2026-04-22 21:22 53.76641 9.50397 6254 ft 287 kts 76°
2026-04-22 21:22 53.77002 9.53722 5674 ft 285 kts 76°
2026-04-22 21:22 53.77354 9.56982 5146 ft 283 kts 76°
2026-04-22 21:23 53.78056 9.63458 4509 ft 280 kts 76°
2026-04-22 21:23 53.78402 9.66665 4423 ft 274 kts 76°
2026-04-22 21:23 53.78743 9.69834 4377 ft 276 kts 76°
2026-04-22 21:23 53.79087 9.73033 4363 ft 277 kts 76°
2026-04-22 21:24 53.79315 9.75159 4360 ft 277 kts 76°
2026-04-22 21:24 53.79770 9.79419 4327 ft 278 kts 76°
2026-04-22 21:24 53.80123 9.82721 4176 ft 278 kts 76°
2026-04-22 21:24 53.80451 9.85838 4107 ft 263 kts 76°
2026-04-22 21:25 53.80753 9.88769 4087 ft 243 kts 76°
2026-04-22 21:25 53.81037 9.91517 4074 ft 234 kts 76°
2026-04-22 21:25 53.81320 9.94222 4070 ft 234 kts 76°
2026-04-22 21:25 53.81610 9.96938 4069 ft 235 kts 76°
2026-04-22 21:26 53.81901 9.99688 4067 ft 235 kts 76°
2026-04-22 21:26 53.82189 10.02414 4070 ft 235 kts 76°
2026-04-22 21:26 53.82477 10.05138 4067 ft 236 kts 76°
2026-04-22 21:26 53.82756 10.07812 4063 ft 230 kts 76°
2026-04-22 21:27 53.83034 10.10507 4066 ft 234 kts 76°
2026-04-22 21:27 53.83320 10.13244 3959 ft 235 kts 76°
2026-04-22 21:27 53.83640 10.15963 3861 ft 233 kts 70°
2026-04-22 21:27 53.84202 10.18503 3641 ft 230 kts 60°
2026-04-22 21:28 53.84956 10.20884 3296 ft 228 kts 57°
2026-04-22 21:28 53.85386 10.23481 2928 ft 236 kts 89°
2026-04-22 21:28 53.84893 10.26202 2721 ft 250 kts 122°
2026-04-22 21:28 53.83643 10.28095 2613 ft 234 kts 156°
2026-04-22 21:29 53.82074 10.28566 2597 ft 232 kts 190°
2026-04-22 21:29 53.80511 10.27907 2587 ft 232 kts 201°
2026-04-22 21:29 53.78999 10.27062 2572 ft 231 kts 202°
2026-04-22 21:29 53.77479 10.26174 2565 ft 231 kts 203°
2026-04-22 21:30 53.75997 10.25155 2565 ft 223 kts 216°
2026-04-22 21:30 53.74989 10.23481 2569 ft 188 kts 239°
2026-04-22 21:30 53.74252 10.21817 2561 ft 173 kts 239°
2026-04-22 21:30 53.73509 10.20188 2562 ft 177 kts 238°
2026-04-22 21:31 53.72746 10.18557 2557 ft 177 kts 237°
2026-04-22 21:31 53.72000 10.16922 2564 ft 173 kts 239°
2026-04-22 21:31 53.71220 10.15338 2529 ft 179 kts 234°
2026-04-22 21:31 53.70388 10.13732 2235 ft 182 kts 235°
2026-04-22 21:32 53.69846 10.12664 2063 ft 178 kts 236°
2026-04-22 21:32 53.69074 10.11109 1800 ft 170 kts 236°
2026-04-22 21:32 53.68314 10.09554 1570 ft 172 kts 236°
2026-04-22 21:32 53.67583 10.08083 1347 ft 152 kts 236°
2026-04-22 21:33 53.66927 10.06755 1135 ft 147 kts 237°
2026-04-22 21:33 53.66282 10.05416 940 ft 147 kts 237°
2026-04-22 21:33 53.65648 10.04094 725 ft 143 kts 235°
2026-04-22 21:33 53.64999 10.02761 496 ft 146 kts 233°
2026-04-22 21:34 53.64351 10.01463 324 ft 144 kts 233°
2026-04-22 21:34 53.63707 10.00189 120 ft 144 kts 233°
2026-04-22 21:34 53.63090 9.98927 45 ft 126 kts 230°
2026-04-22 21:34 53.62738 9.98216 49 ft 40 kts 230°
2026-04-22 21:35 53.62570 9.97876 48 ft 29 kts 230°
2026-04-22 21:35 53.62475 9.97800 46 ft 14 kts 165°
2026-04-22 21:35 53.62432 9.97913 47 ft 12 kts 89°
2026-04-22 21:35 53.62436 9.97969 45 ft 0 kts 81°
2026-04-22 21:37 53.62436 9.97970 47 ft 1 kts 81°
2026-04-22 21:38 53.62444 9.98014 47 ft 7 kts 71°
2026-04-22 21:38 53.62474 9.98107 45 ft 12 kts 56°
2026-04-22 21:38 53.62534 9.98237 48 ft 16 kts 51°
2026-04-22 21:38 53.62615 9.98395 48 ft 20 kts 51°
2026-04-22 21:39 53.62701 9.98575 49 ft 21 kts 50°
2026-04-22 21:39 53.62795 9.98763 43 ft 21 kts 50°
2026-04-22 21:39 53.62887 9.98950 44 ft 21 kts 50°
2026-04-22 21:39 53.62979 9.99135 49 ft 20 kts 51°
2026-04-22 21:40 53.63066 9.99320 49 ft 20 kts 53°
2026-04-22 21:40 53.63145 9.99510 47 ft 20 kts 53°
2026-04-22 21:40 53.63219 9.99674 45 ft 15 kts 63°
2026-04-22 21:40 53.63180 9.99796 45 ft 13 kts 147°
2026-04-22 21:41 53.63093 9.99877 46 ft 16 kts 152°
2026-04-22 21:41 53.63003 9.99951 45 ft 11 kts 152°
2026-04-22 21:41 53.62953 10.00045 45 ft 10 kts 96°
2026-04-22 21:41 53.62954 10.00057 48 ft 1 kts 85°
2026-04-22 21:42 53.62964 10.00090 48 ft 6 kts 61°
2026-04-22 21:42 53.62994 10.00154 49 ft 1 kts 64°
2026-04-22 21:42 53.62989 10.00176 47 ft 4 kts 109°
2026-04-22 21:42 53.62958 10.00253 48 ft 9 kts 119°
2026-04-22 21:43 53.62948 10.00281 46 ft 0 kts 121°